Lewisburg, WV

6:05 AM EDT on May 26, 2017 (GMT -0400)
Greenbrier Valley

Weather History for KLWB - April, 2014

Change the Weather History Date:

Saturday, April 5, 2014

  Actual Average Record
Temperature  
Mean Temperature 42 °F 46 °F  
Max Temperature 52 °F 60 °F 81 °F (1988)
Min Temperature 32 °F 33 °F 21 °F (1975)
Degree Days  
Heating Degree Days 23    
Month to date heating degree days 56  
Since 1 July heating degree days 4210  
Cooling Degree Days 0    
Month to date cooling degree days 0  
Year to date cooling degree days 0  
Moisture  
Dew Point 28 °F    
Average Humidity 57    
Maximum Humidity 76    
Minimum Humidity 37    
Precipitation  
Precipitation T in - 0.24 in (2012)
Month to date precipitation 0.53  
Year to date precipitation 5.21  
Snow  
Snow 0.00 in - - ()
Month to date snowfall 0.0  
Since 1 July snowfall 40.4  
Snow Depth 0.00 in    
Sea Level Pressure  
Sea Level Pressure 30.02 in    
Wind  
Wind Speed 7 mph (WNW)    
Max Wind Speed 12 mph    
Max Gust Speed 21 mph    
Visibility 10 miles    
Events      
T = Trace of Precipitation, MM = Missing Value Source: NWS Daily Summary

Daily Weather History Graph

Daily Weather History Graph

Search for Another Location

Airport or City:

Trip Planner

Search our weather history database for the weather conditions in past years. The results will help you decide how hot, cold, wet, or windy it might be!

Date:

Astronomy

Apr. 05, 2014 Rise Set
Actual Time 7:00 AM EDT 7:48 PM EDT
Civil Twilight 6:34 AM EDT 8:14 PM EDT
Nautical Twilight 6:02 AM EDT 8:46 PM EDT
Astronomical Twilight 5:30 AM EDT 9:19 PM EDT
Moon 11:10 AM EDT (4/5) 12:53 AM EDT (4/5)
Length of Visible Light 13h 40m
Length of Day
12h 47m
Waxing Crescent, 34% of the Moon is Illuminated
Apr 5
Waxing Crescent
Apr 7
First Quarter
Apr 15
Full
Apr 22
Last Quarter
Apr 29
New

Hourly Weather History & Observations

Time (EDT) Temp. Windchill Dew Point Humidity Pressure Visibility Wind Dir Wind Speed Gust Speed Precip Events Conditions
12:15 AM 53.6 °F - 41.0 °F 62% 29.86 in 10.0 mi WNW 8.1 mph 18.4 mph N/A   Scattered Clouds
12:35 AM 52.7 °F - 38.3 °F 58% 29.87 in 10.0 mi WSW 10.4 mph 23.0 mph N/A   Scattered Clouds
12:55 AM 51.8 °F - 37.6 °F 58% 29.87 in 10.0 mi West 11.5 mph - N/A   Clear
1:15 AM 50.5 °F - 37.9 °F 62% 29.88 in 10.0 mi West 11.5 mph - N/A   Mostly Cloudy
1:35 AM 50.0 °F - 36.7 °F 60% 29.88 in 10.0 mi West 10.4 mph - N/A   Mostly Cloudy
1:55 AM 49.1 °F - 34.9 °F 58% 29.89 in 10.0 mi West 6.9 mph 10.4 mph N/A   Mostly Cloudy
2:15 AM 46.6 °F - 36.1 °F 67% 29.89 in 10.0 mi WNW 8.1 mph 17.3 mph N/A   Scattered Clouds
2:35 AM 45.7 °F 40.6 °F 34.7 °F 65% 29.90 in 10.0 mi West 10.4 mph - N/A   Scattered Clouds
2:55 AM 44.1 °F 40.1 °F 33.4 °F 66% 29.90 in 10.0 mi WNW 6.9 mph 20.7 mph N/A   Scattered Clouds
3:15 AM 43.3 °F 37.2 °F 32.4 °F 65% 29.91 in 10.0 mi West 11.5 mph 17.3 mph N/A   Overcast
3:35 AM 43.0 °F 39.5 °F 32.0 °F 65% 29.91 in 10.0 mi West 5.8 mph 16.1 mph N/A   Overcast
3:55 AM 42.8 °F 36.6 °F 30.6 °F 62% 29.91 in 10.0 mi West 11.5 mph 19.6 mph N/A   Overcast
4:15 AM 42.3 °F 35.9 °F 31.3 °F 65% 29.92 in 10.0 mi NW 11.5 mph 19.6 mph N/A   Mostly Cloudy
4:35 AM 41.2 °F 35.0 °F 30.7 °F 66% 29.94 in 10.0 mi WNW 10.4 mph 19.6 mph N/A   Overcast
4:55 AM 40.5 °F 34.6 °F 30.2 °F 67% 29.94 in 10.0 mi WNW 9.2 mph - N/A   Overcast
5:15 AM 40.5 °F 34.6 °F 27.7 °F 60% 29.94 in 10.0 mi West 9.2 mph 17.3 mph N/A   Overcast
5:35 AM 40.1 °F 35.3 °F 27.3 °F 60% 29.95 in 10.0 mi West 6.9 mph 18.4 mph N/A   Overcast
5:55 AM 39.6 °F 33.5 °F 27.0 °F 61% 29.96 in 10.0 mi West 9.2 mph - N/A   Overcast
6:15 AM 39.0 °F 33.4 °F 27.5 °F 63% 29.96 in 10.0 mi West 8.1 mph - N/A   Overcast
6:35 AM 38.7 °F 32.9 °F 28.4 °F 67% 29.96 in 10.0 mi West 8.1 mph - N/A   Overcast
6:55 AM 38.5 °F 35.0 °F 28.8 °F 68% 29.97 in 10.0 mi West 4.6 mph - N/A   Overcast
7:15 AM 38.5 °F 31.6 °F 28.8 °F 68% 29.98 in 10.0 mi West 10.4 mph - N/A   Overcast
7:35 AM 37.9 °F 33.5 °F 29.5 °F 72% 29.99 in 10.0 mi WNW 5.8 mph - N/A   Light Drizzle
7:55 AM 37.8 °F 32.5 °F 30.2 °F 74% 29.99 in 10.0 mi WNW 6.9 mph - N/A   Light Drizzle
8:15 AM 37.6 °F 34.0 °F 31.1 °F 77% 30.00 in 10.0 mi NW 4.6 mph - N/A   Light Drizzle
8:35 AM 37.4 °F 31.4 °F 30.2 °F 75% 30.00 in 10.0 mi WNW 8.1 mph - N/A   Overcast
8:55 AM 37.6 °F 34.0 °F 28.4 °F 69% 30.01 in 10.0 mi WNW 4.6 mph - N/A   Overcast
9:15 AM 38.1 °F 31.2 °F 27.7 °F 66% 30.01 in 10.0 mi NW 10.4 mph 17.3 mph N/A   Overcast
9:35 AM 38.7 °F 32.9 °F 26.4 °F 61% 30.02 in 10.0 mi WNW 8.1 mph 18.4 mph N/A   Overcast
9:55 AM 38.5 °F 35.0 °F 27.0 °F 63% 30.03 in 10.0 mi WNW 4.6 mph - N/A   Overcast
10:15 AM 39.4 °F 34.5 °F 27.5 °F 62% 30.03 in 10.0 mi NW 6.9 mph - N/A   Overcast
10:35 AM 39.4 °F 31.4 °F 25.7 °F 58% 30.04 in 10.0 mi NW 13.8 mph 20.7 mph N/A   Overcast
10:55 AM 39.6 °F 33.0 °F 26.6 °F 60% 30.04 in 10.0 mi WNW 10.4 mph - N/A   Overcast
11:15 AM 39.9 °F 33.9 °F 26.4 °F 59% 30.05 in 10.0 mi WNW 9.2 mph 16.1 mph N/A   Overcast
11:35 AM 40.6 °F 35.4 °F 27.0 °F 58% 30.05 in 10.0 mi NW 8.1 mph - N/A   Overcast
11:55 AM 40.5 °F 33.6 °F 27.5 °F 60% 30.06 in 10.0 mi West 11.5 mph 16.1 mph N/A   Overcast
12:15 PM 41.0 °F 36.4 °F 28.6 °F 61% 30.06 in 10.0 mi West 6.9 mph 12.7 mph N/A   Overcast
12:35 PM 41.0 °F 35.8 °F 27.7 °F 59% 30.06 in 10.0 mi WNW 8.1 mph - N/A   Overcast
12:55 PM 41.9 °F 36.3 °F 26.8 °F 55% 30.06 in 10.0 mi West 9.2 mph - N/A   Overcast
1:15 PM 42.6 °F 37.8 °F 26.2 °F 52% 30.06 in 10.0 mi WNW 8.1 mph - N/A   Mostly Cloudy
1:35 PM 43.3 °F 38.6 °F 26.1 °F 51% 30.06 in 10.0 mi NW 8.1 mph - N/A   Mostly Cloudy
1:55 PM 44.1 °F 39.5 °F 25.9 °F 49% 30.06 in 10.0 mi West 8.1 mph - N/A   Mostly Cloudy
2:15 PM 43.9 °F 39.3 °F 25.3 °F 48% 30.07 in 10.0 mi NW 8.1 mph - N/A   Mostly Cloudy
2:35 PM 45.1 °F 40.8 °F 25.7 °F 47% 30.07 in 10.0 mi WNW 8.1 mph - N/A   Scattered Clouds
2:55 PM 45.1 °F 41.4 °F 25.5 °F 46% 30.07 in 10.0 mi West 6.9 mph 17.3 mph N/A   Scattered Clouds
3:15 PM 46.9 °F - 25.7 °F 44% 30.07 in 10.0 mi West 6.9 mph 16.1 mph N/A   Scattered Clouds
3:35 PM 47.7 °F - 25.2 °F 41% 30.06 in 10.0 mi NNW 10.4 mph 20.7 mph N/A   Scattered Clouds
3:55 PM 48.2 °F - 25.3 °F 41% 30.06 in 10.0 mi West 10.4 mph 18.4 mph N/A   Clear
4:15 PM 48.2 °F - 25.3 °F 41% 30.06 in 10.0 mi Calm Calm - N/A   Clear
4:35 PM 48.7 °F - 24.3 °F 38% 30.06 in 10.0 mi West 6.9 mph - N/A   Clear
4:55 PM 48.0 °F - 24.3 °F 39% 30.06 in 10.0 mi West 6.9 mph - N/A   Clear
5:15 PM 49.1 °F - 24.1 °F 38% 30.06 in 10.0 mi West 8.1 mph 16.1 mph N/A   Clear
5:35 PM 48.9 °F - 23.9 °F 38% 30.06 in 10.0 mi North 9.2 mph - N/A   Clear
5:55 PM 47.5 °F - 22.8 °F 38% 30.07 in 10.0 mi North 8.1 mph 17.3 mph N/A   Clear
6:15 PM 47.8 °F - 23.0 °F 38% 30.07 in 10.0 mi NNW 6.9 mph - N/A   Clear
6:35 PM 46.9 °F - 21.9 °F 37% 30.08 in 10.0 mi NNW 6.9 mph - N/A   Clear
6:55 PM 46.6 °F - 21.9 °F 38% 30.09 in 10.0 mi North 8.1 mph - N/A   Clear
7:15 PM 45.9 °F 42.9 °F 22.1 °F 39% 30.09 in 10.0 mi NNW 5.8 mph - N/A   Clear
7:35 PM 44.8 °F 41.0 °F 22.5 °F 41% 30.09 in 10.0 mi NNW 6.9 mph - N/A   Clear
7:55 PM 44.1 °F 41.5 °F 22.8 °F 43% 30.10 in 10.0 mi NNW 4.6 mph - N/A   Clear
8:15 PM 43.3 °F 41.7 °F 23.2 °F 45% 30.11 in 10.0 mi NNW 3.5 mph - N/A   Clear
8:35 PM 42.6 °F 39.0 °F 23.0 °F 46% 30.12 in 10.0 mi NNW 5.8 mph - N/A   Clear
8:55 PM 41.7 °F 39.8 °F 23.5 °F 49% 30.12 in 10.0 mi NW 3.5 mph - N/A   Clear
9:15 PM 41.7 °F 39.8 °F 23.5 °F 49% 30.13 in 10.0 mi NNW 3.5 mph - N/A   Clear
9:35 PM 41.5 °F 37.8 °F 22.8 °F 47% 30.13 in 10.0 mi NNW 5.8 mph - N/A   Clear
9:55 PM 41.0 °F - 23.0 °F 49% 30.14 in 10.0 mi Calm Calm - N/A   Clear
10:15 PM 36.0 °F - 24.8 °F 64% 30.14 in 10.0 mi Calm Calm - N/A   Clear
10:35 PM 37.4 °F 34.9 °F 24.8 °F 60% 30.14 in 10.0 mi North 3.5 mph - N/A   Clear
10:55 PM 35.4 °F 31.5 °F 25.0 °F 66% 30.14 in 10.0 mi NNE 4.6 mph - N/A   Clear
11:15 PM 33.6 °F - 24.4 °F 69% 30.14 in 10.0 mi Calm Calm - N/A   Clear
11:35 PM 32.2 °F 28.9 °F 24.4 °F 73% 30.14 in 10.0 mi North 3.5 mph - N/A   Clear